Temp
26 25 25 25 25 25 25 26 26 26 26 26 26 26 26 26 26 26 26 26 26 26 26 26 26 25 25 25 25 25 25 25 25 25 25 25 26 25 26 26 26 26 26 26 26 26 26 27 27 27 27 27 27 27 27 27 28 28 28 28 28 27 27 27 26 26 27 27 27 27 27 27 27 27 27 28 28 28 28 28 28 28 28 28 28
26 26 26 26 26 26 26 26 26 26 26 26 26 26 26 26 26 26 26 26 26 26 26 26 26 26 26 25 25 25 25 25 25 25 25 25 26 26 26 26 26 26 26 26 26 26 26 26 26 26 26 26 27 27 27 28 28 28 28 28 28 28 27 27 27 26 26 27 27 27 27 27 27 27 27 27 28 28 28 28 28 28 28 28 28
26 26 26 26 26 26 26 26 26 26 26 26 26 26 26 27 27 27 27 26 26 26 26 26 26 26 26 26 26 26 26 26 26 26 26 26 26 26 26 26 26 26 26 26 26 26 26 26 26 26 26 27 27 27 27 27 27 28 28 28 28 28 27 27 27 26 26 26 27 27 27 27 27 27 27 27 28 28 28 28 28 28 28 28 28
26 26 26 26 26 26 26 26 26 26 26 26 27 27 27 27 27 27 27 27 27 26 26 26 26 26 26 26 26 26 26 26 26 26 26 26 26 26 26 26 26 26 26 26 26 26 26 26 26 27 27 27 27 27 27 27 28 28 28 28 28 28 28 27 27 27 26 26 27 27 27 27 27 27 28 28 28 28 28 28 28 28 28 29 28
27 26 27 27 27 27 27 27 26 26 27 27 27 27 27 27 27 27 27 27 27 26 26 26 26 27 27 26 27 27 26 26 26 26 26 26 26 26 26 26 26 26 26 26 26 26 26 26 26 27 27 27 27 27 28 28 28 28 28 28 28 28 27 27 27 27 27 27 27 27 27 27 27 27 27 28 28 28 28 28 28 28 28 28 28
27 27 27 27 27 27 27 27 27 27 27 27 27 27 27 27 27 27 27 27 27 26 26 26 25 26 27 27 27 27 26 26 26 26 26 26 26 26 26 26 26 26 26 26 26 26 26 27 27 27 27 27 27 27 28 28 28 28 28 28 28 28 27 27 27 27 27 27 27 27 27 27 27 27 27 27 27 28 28 28 28 28 28 28 28
26 27 27 27 27 27 27 27 27 27 27 27 27 27 27 27 27 27 27 26 27 27 27 26 26 26 26 26 26 26 26 26 26 26 26 26 26 26 26 26 26 26 26 26 26 26 27 27 27 27 27 27 27 27 27 28 28 28 28 28 28 27 27 27 27 27 27 26 26 26 26 26 27 27 27 27 27 27 27 27 27 27 27 27 27
25 27 28 27 27 27 27 27 28 28 28 28 28 28 28 28 28 28 27 26 26 27 27 26 26 26 26 26 26 26 26 26 26 26 26 26 26 26 26 26 26 26 26 26 26 26 27 27 27 27 27 27 27 28 28 28 28 28 28 28 27 27 27 27 27 27 27 26 26 26 26 26 26 27 27 27 27 27 27 26 26 26 26 27 27
24 26 27 27 27 27 27 26 27 27 27 28 28 28 27 27 28 27 26 25 25 26 26 26 26 26 26 26 26 26 26 26 26 26 26 26 26 26 26 26 26 26 26 26 26 26 27 27 27 27 27 27 27 27 28 28 28 28 28 28 28 27 27 27 27 27 26 26 26 26 26 26 26 26 27 27 27 27 27 26 26 26 26 27 27
25 26 27 27 27 27 26 26 26 26 26 27 27 27 27 27 27 27 26 25 26 26 26 26 26 26 27 26 26 26 26 26 26 26 26 26 26 26 26 26 26 26 26 27 27 27 27 27 26 26 27 27 27 27 27 27 27 27 27 27 27 27 27 27 27 26 26 26 25 26 25 25 26 26 26 26 27 27 26 26 26 26 26 26 26
24 25 27 26 26 26 26 26 26 26 26 26 27 27 26 26 26 26 26 26 26 26 26 26 26 26 26 26 26 25 25 25 26 26 26 26 26 26 26 26 26 26 27 27 26 26 26 27 26 26 26 27 27 27 27 27 27 27 27 27 27 27 27 27 26 26 26 25 25 25 25 25 26 26 26 26 26 26 26 26 25 25 25 25 24
22 24 26 26 25 26 26 26 26 26 26 26 26 27 26 26 26 26 26 26 26 26 25 25 25 26 26 26 26 25 25 25 26 26 26 26 26 26 26 26 26 26 26 26 26 26 26 26 26 26 26 26 26 27 27 27 26 26 26 26 26 26 26 26 26 25 25 25 25 25 25 25 25 25 25 25 25 25 25 25 25 25 25 24 24
21 22 24 24 24 25 25 25 26 26 26 26 26 26 26 26 26 26 26 26 25 25 25 25 24 24 25 25 25 25 25 25 25 26 26 26 26 26 25 26 26 26 26 26 26 26 26 26 26 26 26 26 26 26 26 26 26 26 26 26 26 26 26 25 25 25 25 25 24 24 25 25 24 25 25 24 25 25 25 25 25 25 24 24 24
21 22 23 22 22 23 24 24 24 24 25 25 25 25 25 25 25 25 25 25 25 24 24 24 24 23 23 24 24 24 25 25 25 25 26 26 26 25 25 25 26 26 25 25 25 25 25 25 25 25 25 25 25 25 25 25 25 25 25 25 25 25 25 25 25 25 25 25 24 24 24 24 24 24 24 24 24 24 25 24 24 24 24 24 24
20 21 22 21 22 22 22 23 23 22 23 23 24 24 24 24 24 24 24 24 24 23 22 22 22 22 22 22 23 23 23 23 24 24 25 25 25 25 25 25 25 25 24 25 24 24 24 24 24 24 24 24 24 24 24 24 24 24 24 24 24 24 24 25 25 25 24 24 24 23 24 24 24 24 24 24 24 24 24 24 24 24 23 23 23
20 20 20 20 21 21 22 22 22 22 22 22 23 22 22 23 23 23 23 23 22 21 21 21 21 21 21 21 22 22 22 22 22 23 23 24 24 24 24 24 24 24 23 23 23 23 23 23 23 23 23 23 23 23 23 23 23 23 24 24 24 24 24 24 24 24 24 23 23 23 23 23 23 23 23 23 23 23 23 23 23 23 22 22 22
19 19 19 20 20 20 21 21 21 21 21 21 21 21 21 21 21 21 22 21 21 21 20 20 21 20 20 20 21 21 21 21 21 22 22 23 23 23 24 23 23 23 22 22 22 22 22 22 22 22 22 22 22 22 22 22 23 23 23 23 23 23 23 23 23 23 23 23 24 23 23 23 23 23 22 22 22 22 22 22 22 21 21 21 21
19 19 19 19 19 20 20 20 20 20 20 20 20 20 20 20 20 21 21 21 20 20 20 20 20 20 20 20 20 20 20 20 21 21 22 22 22 23 23 23 22 22 22 21 21 21 21 21 21 21 21 21 22 22 22 22 22 22 22 23 22 22 22 22 23 23 23 23 23 22 22 22 22 22 21 21 22 21 21 21 21 20 20 20 20
18 19 19 19 19 19 20 20 20 19 19 19 20 20 20 20 20 20 20 20 20 19 19 19 19 19 19 19 19 20 20 20 20 21 21 21 22 22 22 22 21 21 21 21 20 20 20 20 21 21 21 21 21 22 22 22 22 22 22 22 22 21 22 22 22 22 22 22 22 22 22 22 22 21 21 21 21 21 21 21 21 20 20 20 21
18 18 19 19 19 19 19 19 19 19 19 19 19 19 19 19 19 19 19 19 19 19 19 18 18 18 19 19 19 19 19 19 20 20 20 20 21 21 21 21 21 21 21 20 20 20 20 20 20 20 21 21 21 21 22 22 22 22 21 21 21 21 21 21 21 21 21 21 21 21 21 21 21 21 21 21 21 21 21 21 21 21 20 20 21
18 18 18 18 18 18 19 19 19 19 18 19 19 18 18 19 19 19 19 18 18 18 18 18 18 18 18 19 19 19 19 19 19 19 19 20 20 20 21 20 20 20 20 20 20 19 19 20 20 20 20 21 21 21 21 21 22 22 21 21 21 21 21 21 21 20 20 21 21 21 21 21 21 20 20 21 21 21 21 21 21 21 21 20 20
18 18 18 18 18 18 18 18 18 18 18 19 18 18 18 18 18 18 18 18 18 18 18 19 19 18 18 19 19 19 19 19 19 19 19 19 19 20 20 20 20 19 19 19 19 19 19 20 20 20 21 21 21 21 21 21 22 21 21 21 21 21 21 21 20 20 20 20 20 21 21 20 20 20 20 20 20 20 20 20 20 20 20 20 20
18 18 19 19 19 19 19 19 19 19 19 19 19 19 19 19 19 19 19 19 18 18 18 18 18 18 18 18 18 18 18 18 18 19 19 19 19 19 19 19 19 19 19 19 19 19 19 20 20 20 20 21 21 20 20 21 21 21 21 21 21 21 20 20 20 20 20 20 20 20 20 19 19 19 19 19 19 19 19 19 19 19 20 20 20
18 18 18 19 19 19 19 19 19 19 19 19 19 19 19 19 19 19 19 19 19 18 18 18 18 18 18 18 18 18 18 18 18 18 18 19 19 19 19 19 19 19 19 19 19 19 19 20 20 20 20 20 20 20 20 21 21 21 21 21 20 20 20 20 20 20 19 19 19 19 18 18 18 18 18 18 18 18 18 19 19 19 19 19 19
18 18 18 19 19 19 19 19 19 19 19 19 19 19 19 19 19 19 19 19 19 19 18 18 18 18 18 18 18 17 17 17 17 17 18 18 19 19 19 20 19 19 19 19 19 19 19 20 20 20 20 20 21 20 20 21 21 21 21 21 20 20 20 20 19 19 19 18 18 18 17 17 17 17 17 18 18 18 18 18 18 18 18 18 18
18 19 19 19 19 19 19 19 19 19 19 19 19 19 19 19 19 19 19 19 19 19 19 19 18 18 18 18 17 17 17 16 16 16 17 18 18 19 19 19 19 19 19 19 19 19 20 20 20 20 20 21 21 21 21 21 21 20 20 20 20 19 19 18 18 18 18 17 17 17 17 17 17 17 17 17 17 17 17 17 17 17 17 17 17
18 19 19 19 19 19 19 19 19 19 19 19 19 19 19 19 19 19 19 19 19 19 19 19 19 18 18 18 17 17 16 16 16 17 17 17 18 18 18 19 19 19 19 19 19 19 19 20 20 20 20 20 20 20 20 20 20 20 20 19 19 18 18 17 17 17 17 17 16 16 16 16 16 16 16 16 16 16 16 16 16 16 16 16 16
19 19 19 19 19 19 19 19 19 19 19 19 19 19 19 19 19 19 19 19 19 19 19 19 18 18 18 17 17 17 16 17 17 17 17 17 17 17 18 18 18 18 18 18 19 19 19 19 19 20 20 20 20 20 20 19 19 19 19 18 18 17 17 17 17 17 16 16 16 16 16 16 16 16 15 15 16 16 16 16 16 16 16 16 16
19 19 19 19 19 19 19 19 19 19 19 19 18 18 18 19 19 18 18 18 18 18 18 18 18 18 18 17 17 17 17 17 17 17 16 17 17 17 17 17 17 17 17 18 18 18 19 19 19 19 20 19 19 19 19 18 18 18 18 18 17 16 16 16 16 16 16 15 15 15 15 15 15 15 15 15 15 15 16 16 16 16 16 16 16
19 19 18 19 19 19 19 19 18 19 18 18 18 18 18 18 18 18 18 18 18 18 18 18 18 18 17 17 17 17 17 16 16 16 16 16 16 16 17 17 17 17 17 17 17 18 18 18 19 19 19 18 18 18 18 18 17 17 17 17 17 16 16 15 16 15 15 15 15 15 14 14 14 14 15 15 15 15 15 16 16 16 16 15 15
19 19 19 18 19 19 19 18 18 18 18 18 18 18 18 18 18 18 18 18 18 18 18 18 17 17 17 17 16 16 16 16 16 16 16 16 16 16 16 16 16 17 17 17 17 17 17 18 18 18 18 18 17 17 17 17 17 17 17 16 16 15 15 15 15 15 15 15 15 14 14 14 14 14 15 15 15 15 15 15 15 15 15 15 15
19 19 18 18 18 19 18 18 18 18 17 17 17 17 18 18 17 17 17 17 17 17 17 17 16 16 16 17 16 16 15 15 15 15 15 15 15 15 16 16 16 16 16 16 16 17 17 17 17 18 17 17 17 17 17 17 16 16 16 16 15 15 15 15 15 15 14 14 14 14 14 14 14 14 15 14 14 14 15 15 15 14 14 14 13
18 18 18 18 18 18 18 18 18 18 17 17 17 17 17 17 17 17 17 17 17 17 17 17 16 16 16 16 16 16 15 15 15 15 15 15 15 15 15 16 16 16 16 16 16 17 17 17 17 17 17 17 17 17 16 16 16 16 16 15 15 15 15 15 15 14 14 14 14 14 14 14 14 14 14 14 14 14 14 13 13 12 12 12 12
18 18 18 18 18 17 17 17 17 17 17 17 18 18 18 18 17 17 17 17 17 17 17 17 16 16 16 16 16 15 15 15 15 14 14 14 14 14 15 15 15 16 16 16 16 17 17 17 17 17 17 17 17 16 16 16 15 15 15 15 15 15 14 14 14 14 14 14 14 14 14 14 14 14 13 13 13 13 12 12 12 11 11 11 11
18 18 17 17 17 17 17 17 17 17 17 17 17 18 18 18 18 17 17 17 17 17 17 16 16 16 16 15 15 15 14 14 14 14 14 14 14 14 15 15 15 15 16 16 16 16 17 17 17 17 17 17 16 16 16 15 15 15 14 14 14 14 14 14 14 14 14 14 14 14 14 13 13 13 13 13 12 11 11 11 11 11 11 11 11
17 17 17 17 17 17 17 17 17 17 17 17 17 17 17 17 17 17 18 18 17 17 17 16 16 16 15 15 15 14 14 14 14 14 14 14 14 15 15 15 15 15 15 15 15 16 16 16 16 17 17 16 16 15 15 15 15 14 14 14 14 14 14 13 13 13 13 13 13 13 12 12 12 12 12 11 10 10 10 10 10 10 10 10 10
17 17 17 17 17 17 17 17 16 16 16 16 17 17 17 17 17 18 18 18 18 17 17 16 16 16 15 15 14 14 14 14 14 14 14 15 15 15 15 15 15 15 15 14 15 15 15 15 15 15 15 15 15 14 14 14 14 14 14 13 13 13 13 13 13 13 12 12 11 11 11 11 10 10 10 10 9 9 9 9 9 9 9 9 9
17 17 17 17 17 17 16 16 16 16 16 16 16 16 17 17 17 17 17 18 18 17 17 17 16 16 16 15 14 14 14 14 14 14 14 15 15 15 15 15 15 15 14 14 14 14 14 14 14 14 14 14 14 13 13 13 13 13 13 13 13 12 12 12 12 12 12 11 10 10 10 10 9 9 9 9 9 8 8 8 8 8 8 9 9
17 17 17 17 16 16 16 16 16 16 16 16 16 16 17 17 17 17 17 17 17 17 17 17 16 16 16 15 14 14 14 14 14 14 14 14 14 15 15 15 14 14 14 13 13 13 13 13 13 13 13 13 13 13 13 13 12 12 12 12 12 12 11 11 11 11 10 10 9 9 9 9 8 8 8 8 8 8 7 7 7 7 7 7 8
17 17 17 17 17 16 16 16 16 16 16 16 16 17 17 17 17 17 17 17 17 18 17 17 16 16 15 15 14 14 14 14 14 14 13 13 14 14 14 14 14 14 13 12 12 12 12 12 12 12 12 12 12 12 12 12 12 12 11 11 11 11 10 10 10 10 9 9 8 8 8 8 8 8 8 7 7 7 7 7 7 6 6 6 7
16 17 16 16 17 16 16 16 16 16 16 16 17 17 17 17 17 17 17 17 17 17 17 16 15 15 15 14 14 14 14 14 14 13 13 13 14 14 14 13 13 13 12 12 12 12 12 12 12 12 11 11 11 11 11 11 11 11 11 10 10 10 9 9 9 9 9 8 8 8 7 7 7 7 7 7 7 7 6 6 6 6 6 6 6
16 17 16 16 16 16 16 16 16 16 16 16 17 17 17 17 17 17 17 17 17 16 16 15 15 15 14 14 14 14 14 14 14 14 13 13 13 13 13 13 13 12 12 12 11 11 11 11 11 11 10 10 10 10 10 10 10 10 9 9 9 9 9 9 8 8 8 7 7 7 7 6 6 6 6 6 6 6 6 6 6 6 6 6 6
16 17 17 17 17 17 16 16 16 16 16 16 16 16 16 16 16 16 16 16 16 16 16 15 15 14 14 14 14 14 14 14 13 13 13 13 13 13 13 12 12 11 11 11 11 10 10 10 10 10 9 9 9 9 9 9 9 9 9 8 8 8 8 8 7 7 7 6 6 6 6 6 5 5 5 5 5 5 5 5 5 5 5 5 5
17 16 16 16 16 16 16 16 16 16 16 16 16 16 16 16 16 16 16 16 16 16 15 15 14 14 14 14 14 14 13 13 13 13 12 12 12 12 12 11 11 11 10 10 10 10 10 9 9 9 9 8 8 8 8 8 8 8 8 8 7 7 7 7 6 6 6 6 6 5 5 5 5 5 5 5 5 4 4 5 5 5 5 5 5
16 16 16 16 16 16 16 16 16 16 16 16 16 16 15 15 15 15 15 15 15 15 15 15 14 14 13 13 13 13 13 13 13 12 12 12 12 11 11 11 10 10 10 9 9 9 9 8 8 8 8 8 8 8 8 7 7 7 7 7 7 7 6 6 5 5 5 5 5 5 5 4 4 4 4 4 4 4 4 4 4 4 4 4 5
16 16 16 16 15 15 16 16 16 16 16 16 15 15 15 15 15 15 15 15 15 15 15 14 14 13 13 13 13 13 13 12 12 12 11 11 11 10 10 10 9 9 9 8 8 8 8 8 7 7 7 7 7 7 7 7 7 7 6 6 6 6 6 5 5 5 5 5 5 4 4 4 4 4 4 3 3 3 3 3 4 4 4 4 4
16 16 16 16 15 15 15 15 15 16 16 15 15 15 15 15 15 15 14 14 14 14 14 14 13 13 13 13 12 12 12 11 11 11 10 10 10 9 9 9 8 8 8 7 7 8 8 7 7 7 7 7 7 6 6 6 6 6 6 6 6 6 5 5 5 5 5 4 4 4 4 4 4 3 3 3 3 3 3 3 3 4 4 4 4
15 15 15 15 15 15 15 15 15 15 15 15 15 15 15 15 15 15 14 14 14 14 13 13 13 13 12 12 12 11 11 11 10 10 10 9 9 9 8 8 8 7 7 7 7 7 7 7 6 6 6 6 6 6 6 6 6 6 6 5 5 5 5 5 5 4 4 4 4 4 4 3 3 3 3 2 2 3 3 3 3 3 4 4 4
14 15 15 15 15 15 15 15 15 15 15 15 15 15 15 15 15 14 14 14 13 13 13 12 12 12 12 11 11 11 10 10 10 9 9 9 8 8 8 7 7 7 7 6 6 6 6 6 6 6 6 6 6 6 6 5 5 5 5 5 5 5 5 4 4 4 4 4 4 4 3 3 3 3 2 2 2 2 3 3 3 3 3 3 4
14 14 15 15 15 16 16 16 15 15 15 15 15 15 15 15 14 14 14 13 13 12 12 12 12 11 11 11 11 10 10 10 9 9 9 8 8 7 7 7 7 7 6 6 6 6 6 6 6 6 6 6 6 5 5 5 5 5 5 5 4 4 4 4 4 4 4 4 3 3 3 3 3 2 2 2 2 2 2 2 2 3 3 3 3
13 14 15 15 16 16 16 15 15 15 15 15 15 15 14 14 14 14 13 13 12 12 12 11 11 11 11 10 10 10 10 9 9 9 8 8 7 7 7 7 6 6 6 6 6 6 6 6 6 6 5 5 5 5 5 5 5 5 4 4 4 4 4 4 4 4 4 3 3 3 3 3 2 2 2 2 2 2 2 2 2 2 3 3 3
Height
837 839 841 842 844 844 846 847 848 849 850 852 853 854 855 856 857 858 859 861 862 863 864 864 865 866 867 868 868 869 870 870 871 872 872 873 873 874 874 874 874 875 875 875 875 875 875 875 876 876 876 876 876 876 876 876 876 875 875 875 875 875 875 874 874 873 871 872 871 870 869 868 867 866 865 863 862 861 860 859 858 857 856 854 853
836 838 840 841 842 843 845 846 847 848 849 850 851 852 854 855 856 858 858 860 861 862 863 864 865 865 866 867 868 868 869 870 871 871 872 873 873 873 874 874 874 874 875 875 875 875 875 875 875 875 875 875 875 875 875 875 875 875 874 874 874 874 874 874 873 872 871 870 870 869 868 867 866 865 864 863 861 860 859 858 857 856 855 853 852
835 837 839 840 841 843 844 845 846 847 848 849 850 851 852 853 855 856 857 859 860 861 862 863 864 865 866 866 867 867 868 869 870 871 871 872 872 873 873 873 873 874 874 874 874 874 874 874 874 874 874 874 874 874 874 874 874 874 874 873 873 873 873 873 872 872 871 870 869 869 867 867 865 864 863 862 861 859 858 857 856 855 854 853 851
835 836 838 840 841 842 843 844 846 847 847 848 849 850 851 852 853 855 856 857 858 860 861 862 863 864 865 866 866 867 868 868 869 870 870 871 871 872 872 873 873 873 873 873 873 873 873 873 874 874 874 874 873 873 873 873 873 873 873 873 872 872 872 872 872 871 871 870 869 868 867 866 865 863 862 861 859 858 857 856 855 854 853 852 851
834 836 837 839 840 841 843 844 845 846 847 848 848 849 850 851 852 854 855 856 857 859 860 861 862 863 864 865 866 866 867 868 868 869 870 870 870 871 871 872 872 872 872 873 873 873 873 873 873 873 873 873 873 872 872 872 872 872 872 872 872 872 871 871 871 870 870 869 868 867 866 865 864 863 862 860 858 857 856 855 854 853 852 851 850
833 835 837 838 840 841 842 843 844 845 846 847 848 849 850 850 852 852 853 855 856 857 858 860 862 863 863 864 865 865 866 867 868 869 869 870 870 870 871 871 871 871 871 872 872 872 872 872 872 872 872 872 871 871 871 871 871 871 871 871 871 871 871 870 870 870 869 869 867 867 866 865 864 862 861 860 858 856 855 853 852 852 851 850 849
833 834 836 838 839 840 841 842 843 844 845 846 846 847 848 849 850 851 852 854 855 856 857 858 859 861 862 863 863 864 865 866 867 868 869 869 869 869 870 870 870 871 871 871 871 871 871 871 871 871 871 870 870 870 870 870 870 870 870 870 870 870 870 870 869 869 869 868 867 866 866 865 864 862 860 859 857 856 854 853 852 852 851 849 848
834 835 835 837 838 839 840 841 841 843 844 844 846 846 847 848 848 849 851 853 854 855 856 857 858 859 860 861 863 863 864 865 866 867 868 868 869 869 869 869 869 870 870 870 870 870 869 870 870 870 869 869 869 869 869 870 869 869 869 869 869 868 868 868 868 867 867 867 866 865 865 864 863 861 860 858 857 856 854 853 852 851 850 848 847
836 836 835 835 836 836 837 839 839 841 841 843 844 845 846 847 848 848 850 853 854 854 855 856 857 858 858 860 861 862 863 864 865 866 866 867 867 868 868 868 868 869 869 869 869 868 868 868 869 869 868 868 868 868 868 868 868 868 868 868 868 867 867 867 866 866 866 865 865 864 863 863 861 860 859 858 856 855 854 853 851 850 848 846 845
836 837 835 834 835 835 836 837 838 839 840 841 842 843 844 846 847 848 850 852 853 853 853 855 856 856 856 857 859 860 861 862 863 864 865 865 866 867 867 867 867 868 868 868 867 867 867 867 867 868 868 867 867 867 866 866 867 867 867 867 867 867 866 866 865 865 865 864 863 863 862 861 860 859 858 857 856 855 853 852 850 848 847 845 843
835 836 834 833 834 834 835 835 837 838 839 840 841 841 843 845 847 848 849 851 851 852 853 854 855 856 856 857 858 859 860 860 861 862 863 864 865 865 866 866 867 867 867 867 866 866 866 866 866 867 867 866 866 865 865 865 865 866 867 866 866 866 865 865 865 864 864 863 862 862 861 859 858 858 857 856 855 854 853 851 849 848 846 845 842
835 835 832 832 832 832 834 834 835 837 838 839 839 840 841 843 845 847 848 850 851 851 852 853 854 855 855 856 857 858 859 859 860 860 861 862 863 864 865 866 866 866 866 866 866 865 865 865 865 865 865 864 864 864 864 864 864 864 865 865 865 864 864 864 864 863 863 862 861 860 859 858 857 856 856 855 854 853 851 850 849 847 846 845 843
836 834 831 831 832 832 833 833 833 835 836 837 837 838 839 841 843 845 846 848 849 850 851 853 853 854 854 855 857 857 858 858 859 859 860 860 861 862 863 864 865 865 865 864 864 864 864 864 864 864 864 863 863 863 863 863 863 863 863 863 863 863 863 863 862 862 861 860 859 859 858 857 855 854 854 854 852 851 849 848 847 846 845 844 843
834 833 830 831 832 832 833 832 833 834 834 835 836 836 838 840 841 843 844 846 848 849 850 852 852 853 853 854 855 856 856 857 858 858 859 859 860 860 861 863 863 863 863 863 863 863 863 863 863 863 863 863 862 862 862 862 862 861 862 861 861 861 861 861 861 860 859 859 858 857 857 856 855 853 853 852 851 849 848 847 846 845 844 843 842
834 832 831 831 832 832 833 833 834 834 833 834 835 836 837 839 840 842 843 845 846 847 849 851 852 853 853 853 854 855 856 856 857 857 858 858 858 859 860 861 861 861 861 861 861 861 862 862 862 862 862 861 861 861 861 861 860 860 860 860 860 860 860 860 859 858 858 857 857 856 856 855 854 853 852 851 850 848 847 846 845 843 842 841 840
834 833 832 833 833 833 833 833 833 833 834 835 835 836 837 838 839 841 842 844 845 847 848 850 851 852 853 854 854 855 855 856 856 857 857 857 857 858 858 859 859 859 859 860 860 860 860 861 861 861 861 861 860 860 860 860 859 859 859 859 858 859 859 858 858 857 857 856 856 855 855 854 853 852 851 850 849 848 846 845 844 843 841 839 838
833 832 833 833 833 833 834 835 835 834 834 835 836 837 837 838 839 841 842 844 845 846 848 849 850 851 852 853 854 854 855 855 855 856 856 856 857 857 857 858 858 858 858 859 859 859 859 859 859 860 860 859 859 859 859 859 859 858 858 857 857 857 857 856 856 855 855 854 854 854 853 851 851 850 850 850 848 847 844 843 843 843 841 840 838
831 831 832 832 833 833 835 836 837 837 836 836 836 838 838 839 840 841 843 844 844 846 847 848 849 850 851 852 853 854 855 855 855 856 856 856 856 856 856 856 856 857 857 857 858 858 858 859 859 859 859 858 858 858 858 858 857 857 857 856 856 855 855 854 854 853 853 853 852 852 851 850 849 848 849 849 847 846 844 843 842 842 842 841 838
829 830 831 832 833 833 834 834 836 839 839 837 837 839 840 840 841 842 843 844 844 845 846 847 849 849 850 852 853 854 854 854 855 855 855 855 855 855 855 856 856 856 856 857 857 857 858 858 858 858 858 858 858 857 856 856 856 855 855 855 855 854 853 853 852 852 851 851 851 851 850 850 849 848 848 847 846 844 844 844 843 841 841 840 838
829 830 831 831 832 833 833 833 835 838 839 838 838 840 841 842 842 843 843 844 844 846 847 848 850 850 851 853 854 854 854 854 855 855 854 855 855 854 854 855 855 856 857 857 857 857 857 858 858 858 858 857 857 856 856 855 855 854 854 854 853 853 853 852 852 851 851 851 851 850 850 849 848 847 846 846 844 843 843 844 842 841 840 839 838
830 831 832 832 833 833 833 834 836 837 838 838 838 840 842 843 843 843 843 844 845 847 849 850 851 852 852 854 854 855 855 854 854 855 855 855 854 854 854 854 855 856 856 856 856 856 857 857 857 857 857 857 856 855 855 855 854 854 854 854 853 853 852 852 851 851 851 850 850 850 849 848 847 846 845 845 844 843 843 843 842 840 839 839 838
832 832 832 833 834 835 835 836 837 838 839 839 840 842 844 845 844 844 844 846 847 848 850 851 852 853 854 855 855 855 855 855 854 855 855 855 855 854 854 853 854 855 856 856 856 856 856 857 857 857 857 856 855 855 855 855 854 854 854 854 854 853 851 851 851 850 850 850 849 849 848 847 847 846 845 844 844 843 843 841 840 840 839 839 838
834 834 834 835 836 836 837 838 838 839 840 841 843 844 846 846 846 846 846 848 849 850 851 852 854 854 855 855 855 855 855 855 855 856 856 856 856 856 855 854 855 855 855 855 855 855 856 856 856 856 856 856 855 855 855 855 854 854 854 854 854 852 851 850 850 850 850 849 849 849 848 848 847 846 846 845 844 843 842 841 840 839 838 837 837
836 836 836 836 837 838 839 839 840 841 842 844 845 846 846 847 847 848 849 850 851 852 852 854 854 855 855 855 856 856 857 857 857 858 857 857 857 857 856 856 856 855 855 855 855 855 855 855 855 856 856 855 855 855 855 855 855 855 855 854 853 852 851 851 850 850 849 849 849 849 849 849 848 847 847 846 845 843 842 841 840 839 838 837 836
837 837 838 838 839 840 841 842 843 843 844 846 846 846 847 847 848 850 851 852 852 853 853 854 855 855 856 856 857 858 859 859 859 859 858 858 857 857 857 856 855 855 854 854 855 855 855 855 855 855 855 855 855 855 855 855 855 855 855 854 853 852 851 851 850 850 850 850 850 850 850 849 849 848 847 846 845 843 841 840 839 838 837 836 835
839 839 840 841 841 842 843 843 845 846 846 847 847 848 848 849 850 851 852 853 854 854 854 855 855 856 856 857 858 859 860 860 860 860 859 859 858 857 856 856 855 855 855 854 854 854 854 854 854 854 854 854 854 854 853 854 855 855 855 854 853 852 851 851 851 851 851 851 851 851 851 850 850 849 848 846 844 843 841 840 839 838 837 836 835
840 841 841 842 843 843 844 845 846 847 847 848 848 849 850 850 851 852 853 854 855 855 855 855 856 856 856 857 858 859 860 860 860 860 860 859 858 857 856 856 856 855 855 855 854 854 854 854 854 854 853 853 853 852 851 852 854 854 854 853 853 853 852 852 852 852 852 852 852 852 851 851 850 849 848 846 845 843 842 841 839 837 836 835 834
841 842 842 843 843 844 845 846 846 847 848 849 849 850 851 851 852 853 854 855 855 855 856 856 856 857 857 858 858 859 859 860 860 860 860 859 858 857 856 856 856 855 855 855 854 854 853 853 853 853 853 853 853 852 852 853 853 854 854 854 853 853 853 853 852 852 852 852 852 852 851 851 850 849 848 846 845 844 842 841 839 838 836 835 833
841 842 843 843 844 845 846 847 847 848 849 850 850 851 852 852 853 854 855 855 856 856 857 857 858 858 858 859 859 859 860 860 860 860 859 859 858 858 857 856 856 856 855 855 854 854 853 853 852 852 852 852 852 852 852 853 853 854 854 854 854 853 853 852 852 853 853 852 852 852 851 850 849 848 847 846 845 844 842 841 840 838 837 835 834
842 843 843 844 845 846 846 847 848 848 849 850 851 852 853 853 854 855 856 856 857 857 858 858 859 859 859 860 860 860 860 860 860 860 860 859 859 858 858 857 857 856 856 855 855 854 853 853 853 852 852 852 852 852 853 853 853 854 854 854 854 854 853 853 853 854 853 853 852 852 851 850 849 848 847 846 845 844 843 841 840 838 837 835 834
842 843 843 844 845 846 847 848 848 849 850 851 851 852 853 854 855 855 856 857 857 857 858 858 859 859 859 859 860 860 860 860 860 860 860 860 859 859 858 858 858 857 857 856 855 855 854 853 853 853 852 852 853 853 854 854 854 855 855 855 855 855 854 854 854 854 854 853 852 852 851 850 849 848 847 846 845 844 843 841 840 839 837 836 834
842 842 843 844 845 846 847 848 848 850 851 851 852 852 853 854 855 855 856 857 857 857 858 858 858 859 859 859 859 859 860 860 860 860 860 860 860 859 859 859 858 857 857 856 855 855 854 854 854 853 853 853 854 854 854 855 855 856 856 856 856 855 855 855 855 855 854 853 852 852 851 850 849 848 847 846 845 844 842 841 840 839 837 836 835
841 842 843 844 845 846 847 847 848 850 850 851 852 852 852 853 854 855 856 856 857 858 858 858 858 859 859 859 859 859 859 859 859 859 859 859 859 858 858 858 858 857 856 856 855 854 854 854 854 853 853 854 854 854 855 855 855 856 856 856 856 855 855 855 855 854 854 853 852 851 850 850 849 847 846 846 844 843 842 841 840 839 837 836 835
841 842 843 843 844 845 846 847 848 849 850 851 851 852 852 853 853 854 855 855 856 857 857 858 858 858 859 859 859 859 859 860 859 859 859 858 858 857 857 857 857 856 856 855 855 855 854 854 854 854 854 854 854 854 855 855 855 855 855 856 856 855 855 855 855 854 853 852 852 851 850 849 848 847 846 845 844 843 842 841 840 839 838 837 836
841 841 842 843 844 845 846 847 847 848 849 850 850 851 852 852 852 853 854 854 855 856 856 857 858 858 858 859 859 859 859 859 859 859 858 858 857 857 856 856 856 856 855 855 855 855 854 855 855 854 854 854 854 854 854 854 854 855 855 855 855 855 855 854 854 853 852 852 851 850 849 848 847 846 846 845 844 843 842 842 841 840 839 838 837
841 841 842 843 844 844 845 846 847 848 848 849 850 850 851 851 852 852 853 853 854 854 855 856 857 857 858 858 858 859 859 859 859 859 858 857 857 856 856 856 856 855 856 856 855 854 854 855 854 854 853 853 854 854 854 853 853 854 854 854 855 854 854 854 853 852 852 851 850 849 849 847 847 846 846 845 845 844 843 843 842 841 840 839 838
841 842 842 843 844 844 845 846 846 847 848 848 849 849 850 851 851 851 852 852 852 852 853 854 855 856 856 857 858 858 859 859 859 858 858 858 857 857 857 856 856 856 856 856 856 855 855 855 854 854 854 854 854 854 853 853 853 853 853 853 854 854 854 853 852 851 851 850 849 849 848 848 847 847 846 846 845 845 844 843 842 841 840 839 838
841 842 843 844 844 844 845 846 846 847 848 848 848 849 849 850 850 851 851 852 852 852 853 853 854 855 855 856 857 858 858 858 859 858 858 859 858 858 858 857 856 856 857 857 856 855 855 855 855 855 855 854 854 854 853 853 853 852 852 852 852 853 853 852 851 851 850 850 849 849 849 848 848 848 847 846 846 845 844 844 843 841 840 839 837
841 842 843 844 844 845 845 846 846 847 847 847 848 849 849 850 850 851 851 851 852 852 852 852 853 854 854 855 856 857 857 858 858 858 858 859 859 858 858 858 857 857 857 857 856 856 856 856 856 856 855 855 854 853 853 853 852 852 851 851 851 851 851 851 851 851 850 850 850 849 849 849 848 848 847 847 846 845 844 843 843 842 840 839 837
840 841 842 843 844 844 845 845 845 846 846 846 847 848 848 849 849 850 851 851 851 852 852 852 852 852 853 854 855 856 857 857 857 857 857 857 857 858 858 857 857 856 856 856 856 856 856 856 856 855 855 854 854 853 852 852 851 851 850 850 850 850 850 850 850 851 851 850 850 850 850 849 848 848 847 847 846 845 844 843 842 841 840 838 836
839 840 841 842 843 843 843 844 844 844 844 845 846 846 847 847 848 849 850 850 851 851 851 851 851 852 853 854 855 855 856 856 856 856 856 856 856 857 857 856 856 855 855 855 855 855 855 855 855 855 854 853 853 852 851 851 850 850 850 850 849 850 850 850 850 851 851 850 850 850 850 849 848 848 847 846 845 844 843 842 841 839 838 837 835
837 838 839 839 841 842 842 843 843 843 844 844 844 844 845 846 846 847 848 849 850 850 850 850 851 852 853 853 854 854 854 854 854 855 855 855 856 856 856 855 855 854 854 854 854 854 855 854 854 854 853 853 852 852 851 851 850 850 850 849 849 849 850 850 850 850 850 850 850 849 849 849 848 847 846 845 844 843 842 840 839 838 836 835 834
836 836 837 838 838 839 840 841 842 842 843 843 843 843 844 844 845 846 846 847 848 849 849 850 850 851 852 852 852 853 853 853 854 854 855 855 855 855 855 855 854 854 854 853 853 853 854 853 853 853 853 852 852 852 851 851 850 850 850 850 850 850 850 850 850 850 850 849 849 849 848 848 847 846 845 844 843 842 840 839 838 836 835 834 832
835 835 835 836 837 837 839 840 840 841 841 841 842 842 842 843 843 844 844 846 847 847 848 848 849 850 851 851 851 852 852 852 853 854 854 854 854 854 854 854 853 853 853 853 853 853 853 853 853 853 852 852 852 852 851 851 850 849 849 850 850 850 850 850 850 849 849 849 848 847 847 846 845 844 843 842 841 840 839 837 836 835 833 832 831
832 833 834 835 835 837 838 838 839 840 840 840 841 841 841 841 842 842 843 845 845 846 847 848 848 849 850 850 851 852 852 852 852 853 853 854 854 854 853 853 853 852 852 852 853 852 852 852 852 852 852 852 852 852 851 851 849 849 849 849 849 850 849 849 849 849 848 848 847 846 846 845 844 843 842 841 840 839 837 836 835 833 832 831 829
830 831 831 832 833 835 836 837 838 839 838 838 839 840 840 841 841 841 842 843 844 845 846 846 847 849 849 850 850 851 851 851 851 852 852 853 853 853 853 852 852 852 852 852 852 852 852 852 852 851 852 852 851 851 851 850 849 848 848 848 849 849 849 849 849 848 848 847 846 846 845 844 843 843 841 840 839 838 836 835 834 833 831 830 828
829 830 831 831 831 831 833 834 836 836 837 837 838 838 839 839 839 840 841 842 842 843 844 845 846 848 848 849 849 849 850 850 850 851 851 852 852 852 852 852 852 852 852 852 852 852 851 852 851 851 851 851 851 851 851 850 849 848 848 848 848 848 848 848 848 847 847 846 846 845 844 843 842 842 840 839 838 837 835 834 833 831 830 828 827
828 829 830 829 829 829 830 831 833 834 835 836 836 837 838 838 838 838 839 840 840 842 843 844 845 847 847 848 849 849 849 850 850 850 851 851 851 852 852 851 851 852 852 851 852 851 851 851 851 851 851 851 850 850 850 850 849 848 848 848 848 847 847 847 847 846 846 845 844 844 843 842 841 840 839 838 837 835 834 833 831 830 828 827 825
824 825 826 826 826 827 827 828 830 831 833 834 836 836 837 837 837 837 838 839 840 841 842 843 845 846 847 847 848 848 849 849 850 850 851 851 851 851 851 851 851 851 851 851 851 851 850 851 851 850 850 850 850 850 849 849 848 848 847 847 847 846 846 846 846 845 845 844 843 843 842 840 839 839 837 836 835 834 833 832 830 829 827 826 824
820 821 821 822 823 823 824 825 827 829 831 833 834 835 835 836 836 837 837 838 839 840 842 843 844 845 846 847 847 848 848 849 849 850 850 850 851 851 851 851 851 851 850 851 851 850 850 851 850 850 850 849 849 849 849 848 848 847 847 846 846 845 845 845 844 844 844 843 842 841 840 839 838 837 836 835 834 833 832 831 829 828 826 825 823
817 818 818 818 819 820 821 823 825 827 829 831 832 833 834 834 835 836 837 838 839 840 842 843 844 844 845 846 847 847 848 849 849 850 850 850 850 850 851 851 850 850 850 851 850 850 850 850 850 849 849 848 848 848 848 847 847 847 846 846 845 844 844 844 843 843 842 842 841 840 839 837 836 835 834 834 833 832 830 829 828 826 825 823 821
Wind_Speed
24 23 21 20 20 20 21 19 18 17 16 15 15 15 14 14 14 13 12 12 12 14 14 13 13 13 13 13 12 11 11 11 10 10 10 9 10 9 7 8 10 8 6 6 6 7 7 6 6 7 7 8 8 8 7 8 11 10 10 10 10 9 10 11 10 13 16 15 14 15 15 15 15 15 16 18 18 16 15 15 16 17 16 17 18
24 24 22 20 20 20 20 19 17 16 16 16 16 16 14 14 13 13 14 13 12 13 14 14 13 12 11 12 12 12 12 11 11 11 11 10 10 10 7 8 11 10 8 8 8 8 8 6 6 8 8 8 9 9 8 8 10 10 10 11 11 10 10 11 11 12 15 15 15 15 16 15 15 16 16 17 16 16 16 17 16 16 16 17 16
24 24 22 20 20 20 19 18 17 15 16 16 16 17 15 14 13 13 14 13 12 12 14 14 13 12 12 12 12 13 13 12 12 12 12 10 9 10 9 9 10 11 9 8 8 8 8 7 7 9 9 9 10 10 10 10 10 9 8 8 9 9 8 10 12 12 13 15 15 16 17 16 16 16 16 16 17 17 18 18 17 16 17 17 16
25 24 23 20 19 20 19 18 18 16 16 15 15 15 14 14 13 13 14 13 13 14 14 13 13 13 14 12 11 13 13 12 12 12 11 10 9 9 9 9 9 9 9 8 8 8 8 9 10 10 10 11 12 11 10 10 11 10 9 8 7 8 9 9 11 11 11 13 15 17 17 17 17 18 17 18 18 17 18 19 19 19 19 20 20
27 25 22 21 19 19 19 18 17 17 15 14 14 14 14 14 13 12 13 13 13 14 13 12 13 14 14 11 10 11 11 12 13 12 11 11 11 10 9 9 8 8 8 8 9 9 9 10 10 10 11 11 11 10 10 10 10 10 10 9 9 10 10 9 9 10 12 14 17 18 18 18 19 18 18 19 20 21 20 21 21 22 23 21 20
26 27 22 22 21 19 18 18 17 18 16 15 14 14 13 14 14 14 14 12 12 13 12 11 11 12 13 11 10 10 10 10 11 12 11 11 11 11 10 10 9 9 8 8 9 10 10 10 10 10 10 10 11 11 11 11 10 10 10 10 10 10 9 9 9 11 13 14 16 17 17 17 18 19 19 21 23 24 23 22 21 20 19 17 16
19 28 25 21 21 19 17 17 17 17 17 17 16 15 15 15 14 15 13 11 10 11 12 12 11 12 13 12 11 11 11 11 10 11 12 10 9 10 11 11 10 10 10 10 10 10 11 11 11 12 12 13 14 13 12 11 10 9 9 10 10 9 8 8 8 10 11 12 14 15 15 16 17 19 20 20 21 21 19 17 16 15 15 18 19
11 23 25 19 17 15 13 13 13 13 13 15 15 13 15 16 15 13 13 11 10 10 12 12 11 11 12 10 10 10 11 11 10 10 11 11 9 9 9 10 10 10 10 11 11 10 11 11 12 13 14 14 14 14 13 13 12 11 10 10 9 8 8 8 8 9 11 12 13 14 16 17 17 18 19 18 19 18 16 14 15 16 20 23 22
8 16 22 18 15 13 9 9 9 7 7 9 10 7 7 10 12 13 13 11 10 10 11 12 13 13 11 9 10 10 9 11 11 10 10 11 11 10 8 8 9 10 10 10 9 10 10 11 11 12 11 10 11 13 14 15 15 14 13 12 11 11 11 11 12 12 12 12 14 15 15 15 16 18 18 17 18 18 17 19 21 22 23 24 24
14 15 19 18 16 14 10 8 8 7 7 9 9 6 5 7 7 9 9 8 8 9 10 12 13 13 11 10 11 9 9 11 13 13 11 11 11 11 10 9 9 9 9 9 9 9 9 10 10 9 7 7 9 12 13 15 17 16 14 13 13 13 13 13 13 13 13 13 14 14 14 15 18 19 17 18 19 18 18 21 23 22 22 22 23
18 18 20 19 16 16 13 10 9 8 8 9 10 8 6 7 8 8 8 8 8 7 7 7 7 7 8 9 9 9 10 12 13 13 13 12 12 11 11 11 10 8 8 8 9 10 10 10 8 5 3 4 6 8 9 11 14 15 14 13 13 12 12 12 14 14 14 15 16 16 15 17 19 19 19 20 19 17 18 19 18 18 18 17 19
16 17 20 19 17 16 15 13 13 11 9 9 9 9 7 5 6 5 5 5 5 7 8 8 7 6 6 7 7 8 9 10 11 12 13 14 14 14 12 10 7 5 5 5 6 7 8 8 4 2 3 5 6 6 7 7 7 10 11 11 11 11 11 11 13 14 15 16 18 19 19 20 21 21 20 19 17 17 17 16 15 16 18 17 18
15 15 16 15 14 15 15 15 15 14 12 11 10 11 9 6 5 4 3 3 2 3 4 6 8 7 7 8 8 8 6 6 7 9 11 13 14 15 13 9 6 4 4 5 5 5 6 5 4 4 5 6 6 7 6 6 5 6 7 9 10 10 10 10 11 13 15 16 18 19 19 20 21 22 19 17 17 17 16 15 16 16 18 19 20
16 14 13 12 11 12 13 13 14 15 15 13 11 11 9 7 5 4 4 3 2 3 3 4 7 7 6 8 9 7 6 5 5 6 8 10 11 12 12 11 7 4 3 5 6 5 5 5 5 5 5 6 6 6 5 5 5 6 7 7 7 7 7 8 10 11 11 12 13 15 15 15 17 17 16 15 16 15 15 15 16 16 17 18 17
14 11 12 12 12 12 12 13 14 15 14 12 11 10 8 7 6 5 5 5 4 5 4 4 7 8 6 6 6 6 5 4 5 5 6 7 8 8 8 7 4 2 2 4 4 4 4 4 4 4 4 4 4 4 4 5 4 5 6 7 7 6 6 8 8 6 5 6 7 10 11 12 14 14 12 11 12 13 14 15 14 14 15 16 15
11 11 11 13 13 13 13 14 15 15 14 12 11 10 8 7 6 6 6 5 5 5 4 5 7 8 6 4 4 4 2 2 3 3 5 5 6 7 7 5 4 3 3 2 2 2 2 2 2 2 2 3 3 4 5 5 5 6 7 7 8 7 6 6 4 2 3 6 8 10 11 12 13 13 11 11 12 13 13 13 14 14 14 15 15
14 14 14 14 14 13 12 11 11 13 13 12 12 11 10 9 7 6 6 6 6 6 5 6 7 7 5 3 2 2 1 0 1 2 3 4 4 5 6 6 5 4 3 1 0 0 1 0 1 2 3 4 5 6 7 7 7 7 7 8 8 7 5 6 7 8 9 11 12 12 12 12 13 12 11 12 12 11 11 12 15 16 16 14 12
13 12 13 14 14 13 11 9 10 11 13 13 13 12 11 11 10 8 8 9 9 9 9 10 10 9 7 5 3 3 2 2 1 2 1 1 2 3 5 6 6 5 4 3 2 1 1 1 2 3 4 4 6 7 7 8 7 7 7 7 6 5 6 9 11 12 12 12 11 11 10 9 11 10 10 11 12 11 11 13 14 15 16 14 12
14 13 12 12 13 13 12 11 12 13 14 15 15 13 13 13 13 12 11 11 11 11 10 11 11 10 8 7 7 6 6 6 4 3 3 2 2 3 5 6 6 6 6 6 5 3 2 2 3 3 4 5 6 6 6 6 6 6 6 5 5 6 7 9 10 11 11 10 10 11 10 10 12 11 10 11 12 12 13 14 13 14 15 16 15
18 18 17 16 16 16 16 16 16 16 16 17 17 15 14 14 14 14 14 14 14 13 12 12 13 11 10 10 11 10 10 11 10 9 7 5 5 5 7 9 9 8 8 8 7 6 3 2 2 4 5 5 5 5 5 5 5 4 5 5 6 7 7 9 10 11 12 12 12 13 12 11 12 13 12 14 15 15 15 14 13 14 15 16 16
18 19 19 18 19 19 18 18 19 19 18 19 18 18 16 16 16 16 16 17 17 16 14 14 14 14 12 12 12 12 12 13 13 13 11 9 7 8 10 11 12 10 9 9 9 7 4 3 4 5 5 5 5 4 4 5 5 5 6 6 7 8 8 9 10 11 12 11 10 11 13 13 14 14 14 16 16 16 16 14 14 15 16 15 15
20 21 21 21 21 21 21 20 20 19 18 17 17 17 16 17 17 18 17 17 17 16 14 13 13 13 12 11 12 12 12 13 13 14 13 11 10 10 12 13 12 12 11 10 8 7 6 6 6 6 6 5 5 4 5 6 7 6 7 8 9 10 8 7 9 10 10 10 10 12 14 14 15 15 16 16 16 16 16 15 14 13 13 12 14
20 20 21 21 21 21 21 21 20 19 17 16 16 16 16 16 17 17 17 16 15 14 12 11 11 11 12 12 13 13 13 13 13 13 11 10 9 9 10 11 10 10 10 9 8 7 6 6 6 5 5 5 4 3 4 6 7 7 8 10 11 9 7 7 8 9 9 10 12 15 15 16 17 18 18 17 18 17 15 14 14 13 12 12 13
17 17 18 19 19 19 19 18 18 17 17 16 16 16 15 15 15 14 14 14 13 12 11 9 9 9 10 11 12 13 13 13 13 11 10 9 9 9 8 8 7 7 7 7 6 5 4 4 4 4 4 4 3 3 3 4 7 8 8 10 11 8 7 8 8 8 10 13 15 16 16 16 18 18 17 17 18 17 15 15 16 16 15 15 15
16 15 15 15 16 16 17 16 16 15 14 14 14 14 13 13 12 11 10 9 9 9 8 8 8 7 6 8 10 11 11 11 10 9 8 9 10 9 7 6 6 6 6 6 5 5 5 5 3 3 4 4 4 4 2 2 7 10 8 9 10 8 8 9 10 10 13 16 16 15 15 16 17 17 16 16 17 18 18 18 18 18 19 20 18
13 13 13 13 13 13 13 13 12 11 10 10 10 11 10 10 9 8 7 7 7 7 7 7 7 6 6 6 9 9 8 6 6 6 5 6 8 8 7 6 5 5 6 6 5 5 5 4 3 4 5 6 7 8 3 0 5 9 8 10 12 11 10 12 14 15 17 16 15 15 15 15 15 15 15 15 17 19 20 20 20 21 22 22 21
11 10 10 10 11 11 11 11 11 9 9 10 10 10 9 9 9 8 6 6 6 7 8 7 7 6 5 6 9 9 7 6 6 6 5 6 8 8 8 8 6 6 6 6 6 6 5 4 3 3 5 7 10 12 9 7 9 12 13 14 14 13 12 14 16 17 17 15 14 15 15 14 15 16 16 16 17 18 19 19 20 21 22 22 22
11 11 9 9 11 12 11 10 10 9 9 10 12 12 11 11 11 11 10 8 8 9 9 9 9 10 10 11 11 10 8 6 5 6 6 7 8 8 8 8 8 8 9 8 8 6 5 5 5 4 4 7 11 15 15 13 13 14 15 16 15 12 12 14 16 17 16 14 14 15 15 16 16 17 17 18 18 18 18 18 19 20 21 22 22
12 11 9 9 11 12 10 9 9 9 9 11 12 12 12 11 11 12 11 10 9 9 9 9 9 9 10 11 10 8 7 5 5 6 7 7 7 7 8 8 8 9 10 10 9 6 6 9 10 8 7 10 13 14 15 15 13 12 13 15 16 15 15 16 18 18 15 14 14 16 16 17 17 18 18 18 18 18 18 19 19 19 20 21 20
12 10 9 9 10 11 10 10 11 11 10 11 12 12 12 10 9 8 7 6 6 4 4 4 5 4 5 6 7 5 4 4 4 5 5 6 6 6 6 7 8 8 8 8 8 6 8 12 12 10 10 13 15 14 15 16 15 14 13 13 14 15 16 18 18 16 13 13 15 16 16 16 17 18 18 18 19 19 18 19 19 19 20 21 20
11 11 10 9 8 10 11 12 13 13 11 10 11 12 11 9 7 6 5 4 4 2 1 2 2 2 2 2 3 4 3 3 4 4 5 5 5 5 5 5 6 7 7 8 7 6 9 13 12 12 13 14 14 13 13 13 14 13 12 11 13 14 15 16 16 13 12 14 15 14 13 14 15 17 17 17 19 19 19 19 19 19 19 20 20
12 14 13 10 10 12 13 12 12 12 11 10 10 10 10 9 8 8 7 5 4 4 4 3 3 3 3 3 3 3 3 3 4 5 5 5 5 4 4 4 5 6 6 8 8 6 7 10 10 11 12 12 11 11 10 10 11 10 10 11 12 12 13 15 13 12 14 15 14 12 12 14 15 15 15 16 18 19 19 20 20 20 20 20 20
14 15 13 11 11 11 11 10 10 10 10 9 9 8 7 7 7 8 8 6 4 4 4 3 3 4 5 5 5 4 3 4 5 6 6 6 6 6 5 4 5 6 6 8 8 6 5 7 7 7 8 8 7 7 7 6 7 8 10 11 10 10 13 13 11 12 14 13 12 13 14 14 14 15 15 16 17 18 19 20 20 21 22 22 21
11 11 11 11 11 10 10 9 8 8 8 7 7 6 5 5 6 7 7 6 5 5 4 4 4 4 4 3 3 3 2 3 4 5 6 6 6 6 6 5 5 6 5 7 9 7 6 7 5 4 6 6 5 5 6 7 8 9 11 11 10 11 13 13 12 13 14 12 11 13 13 13 15 16 17 17 16 17 18 20 22 23 23 23 23
11 11 10 11 11 10 9 9 9 8 7 7 6 4 3 5 7 7 7 7 7 7 7 7 7 6 5 4 3 2 3 4 5 6 6 6 5 5 5 5 6 5 4 8 11 10 8 6 2 3 4 4 5 6 8 8 9 10 10 11 11 13 14 13 14 15 14 13 13 13 13 14 15 16 16 16 17 18 19 20 22 22 22 22 23
12 13 11 9 9 9 9 9 9 8 7 7 6 3 3 4 5 6 6 7 8 9 8 8 8 8 7 6 4 3 5 6 7 9 10 10 9 9 8 8 9 8 8 10 12 10 7 5 3 3 4 4 6 6 6 6 6 7 8 10 11 12 13 13 14 15 15 16 17 15 14 16 16 15 15 17 18 20 20 21 21 21 20 21 21
10 13 12 10 9 10 10 10 9 9 8 8 7 5 4 3 2 2 2 2 4 8 9 9 9 10 9 8 5 5 7 7 7 8 9 10 11 11 11 11 11 10 9 9 9 9 9 10 10 10 11 10 9 9 8 8 8 8 8 9 10 12 13 13 13 14 15 17 17 16 16 17 17 17 17 18 20 21 21 20 21 21 21 21 21
9 12 13 11 9 10 10 9 9 8 8 9 8 7 6 5 3 2 2 1 1 5 7 8 9 9 9 9 7 7 7 6 6 5 5 8 9 9 10 12 12 9 7 6 7 8 9 10 11 11 12 11 11 10 10 9 9 8 8 8 9 11 13 14 14 14 14 14 15 15 16 17 18 18 18 18 19 19 20 20 20 21 22 22 21
10 13 14 13 11 11 10 9 8 7 7 8 8 7 6 5 4 3 3 2 2 3 5 7 9 9 10 10 9 8 6 4 4 3 3 6 6 5 6 10 10 7 7 8 8 8 8 9 9 10 11 11 10 9 9 9 9 9 9 9 8 10 11 13 13 14 13 13 15 16 18 18 18 18 19 19 18 19 19 20 21 21 22 23 23
12 15 16 15 13 13 12 11 9 8 8 8 8 7 8 7 6 4 3 2 3 4 5 6 8 9 9 11 11 8 5 4 2 2 4 5 4 3 5 8 8 8 9 10 10 10 9 9 9 9 10 11 10 10 9 9 9 9 9 9 9 9 10 10 11 12 12 12 14 16 17 18 18 19 20 19 19 19 19 19 19 20 21 21 22
13 15 17 16 14 14 14 13 12 11 10 9 9 9 8 8 7 6 4 2 1 1 4 9 11 12 11 11 9 6 3 0 2 4 3 3 3 4 6 7 7 7 8 9 9 9 8 9 9 9 10 11 10 9 9 9 9 8 9 9 9 9 9 9 10 10 11 11 13 14 15 16 17 18 19 19 19 19 20 20 20 21 21 21 21
15 16 18 18 17 17 17 15 13 12 11 10 10 10 8 7 7 7 7 5 2 2 6 10 11 10 9 7 4 1 2 4 5 4 3 4 4 6 7 8 9 9 8 7 8 7 7 7 8 9 10 11 11 10 10 10 10 9 8 9 9 9 8 9 9 10 11 11 12 14 16 16 17 17 18 19 19 20 21 22 22 21 21 20 21
18 17 17 17 18 19 18 16 13 13 13 12 12 11 9 7 7 8 7 6 5 3 4 7 9 8 6 4 0 2 3 2 1 4 4 4 5 6 6 7 8 8 8 7 7 6 6 5 6 8 10 11 10 10 9 10 10 9 8 8 8 8 8 9 10 10 10 11 13 15 16 17 18 19 20 20 20 21 21 21 21 21 20 20 21
20 19 18 17 17 18 18 16 14 14 15 13 11 11 11 9 8 8 7 5 4 4 4 5 6 6 5 3 3 3 4 5 5 4 2 1 2 3 4 5 6 5 5 6 6 6 6 6 6 6 8 9 9 9 9 9 9 9 8 8 7 7 9 10 10 9 10 12 15 17 17 18 19 21 21 21 21 21 21 21 21 21 20 20 20
21 19 18 17 16 15 16 16 14 14 14 13 11 11 11 11 9 9 8 5 4 5 6 5 5 6 6 5 5 4 4 3 3 2 1 1 1 2 3 4 5 5 5 5 5 5 6 8 7 7 7 9 10 10 9 9 9 9 8 8 8 8 9 9 9 9 12 15 16 17 18 19 20 21 21 21 20 20 20 20 20 20 19 19 19
22 20 18 17 16 14 14 14 14 13 14 15 14 12 11 11 10 8 8 7 6 7 8 7 7 7 5 3 3 3 4 5 6 6 6 6 4 3 3 4 5 5 6 6 6 5 5 7 8 8 8 8 9 10 9 9 9 9 8 8 8 9 9 9 10 12 14 16 16 17 18 20 20 20 20 19 19 19 19 19 18 18 18 18 18
19 19 18 18 18 16 15 16 16 16 15 14 14 13 12 12 12 10 9 9 9 9 10 8 6 5 3 3 3 5 5 5 5 5 5 4 4 4 5 5 5 5 6 8 7 6 6 6 8 9 8 8 8 8 9 9 9 9 8 9 9 9 10 11 13 14 15 15 17 18 19 19 19 19 19 19 19 19 18 17 16 16 16 17 17
20 21 22 22 20 20 20 20 20 19 17 14 13 13 12 12 13 14 13 11 10 9 7 5 4 4 3 3 3 3 3 2 1 0 0 1 2 3 4 5 6 7 7 7 8 8 8 8 8 9 10 9 9 9 9 9 9 10 9 9 9 10 11 12 13 14 15 16 17 18 18 19 19 20 20 19 18 18 17 16 16 17 17 17 17
26 25 25 25 23 23 23 22 21 20 18 15 13 12 11 9 10 13 13 11 9 8 7 6 5 5 4 3 2 1 1 1 1 2 3 4 5 5 5 6 7 7 8 9 9 9 9 8 8 9 9 8 8 8 8 9 9 10 10 10 10 11 12 14 15 15 16 16 17 18 19 20 21 21 20 19 17 17 17 17 17 17 17 17 18
30 27 25 25 24 22 22 22 20 18 18 15 13 12 11 9 8 10 11 11 11 10 9 7 7 6 4 3 3 2 2 1 1 2 3 4 5 5 5 6 7 7 8 9 9 9 8 7 7 7 7 7 8 8 9 9 10 10 10 10 11 13 14 15 15 15 15 16 18 20 21 22 22 21 19 17 16 16 16 16 16 17 17 17 17
28 28 26 25 23 18 18 19 19 17 16 16 14 12 12 11 9 8 10 11 10 9 8 7 6 6 5 5 4 4 3 2 1 1 1 1 2 3 3 3 4 5 7 8 7 6 6 6 7 8 8 9 9 9 9 10 11 10 10 11 13 15 15 14 13 14 16 18 20 22 23 23 22 20 17 15 15 15 15 16 17 18 18 19 19
Wind_Direction
185 185 184 186 188 186 185 185 187 190 191 188 190 196 196 193 196 199 202 205 206 202 198 200 209 213 208 204 206 211 212 208 204 207 218 217 202 213 242 236 233 243 246 244 249 262 270 264 255 260 266 265 268 273 262 268 287 277 255 254 254 250 253 248 246 266 283 292 300 311 321 322 321 324 323 317 315 319 319 316 318 322 324 326 326
185 185 184 186 189 188 188 190 191 194 195 193 193 195 197 197 199 202 203 207 213 205 198 202 212 213 210 209 207 212 215 209 207 212 219 224 215 216 231 228 226 234 240 243 247 255 261 265 270 272 273 269 267 272 261 263 289 283 255 249 253 254 254 254 257 263 276 291 304 314 321 322 320 320 321 318 316 318 318 318 319 320 323 327 329
186 185 186 190 190 187 189 192 193 195 197 196 194 194 197 200 203 204 202 204 211 206 199 202 209 210 211 215 212 213 217 214 212 217 222 228 225 222 226 232 235 235 237 243 249 257 261 263 269 274 276 271 267 271 265 264 281 288 276 260 249 255 260 258 263 265 272 290 304 311 315 318 318 319 322 319 312 310 311 316 319 317 317 320 322
187 186 188 192 190 186 189 192 192 196 198 195 194 195 196 200 204 206 205 205 206 205 204 205 209 210 212 217 216 213 215 214 212 219 224 226 228 227 227 239 247 236 233 247 256 260 261 260 264 266 269 272 273 273 268 267 273 275 280 275 257 268 276 266 268 269 270 286 300 306 310 312 314 319 321 318 317 314 310 312 315 314 313 314 314
186 184 188 191 190 187 190 192 192 198 200 197 198 200 198 199 203 203 204 207 207 205 209 215 214 207 205 213 219 216 215 213 212 219 226 231 234 233 233 241 247 241 240 249 255 259 258 258 263 266 268 273 273 270 268 270 274 273 271 270 269 275 275 269 269 271 275 286 293 301 306 308 314 322 323 321 320 318 313 311 310 309 310 314 319
184 182 186 191 190 189 191 193 196 199 200 201 203 204 203 203 206 207 206 206 204 201 204 213 216 206 199 206 215 216 217 214 214 221 229 238 238 232 233 240 242 245 250 252 255 261 262 261 263 264 265 267 268 270 269 263 266 273 275 276 279 276 271 273 278 281 286 290 294 303 312 316 320 322 323 322 320 317 317 317 318 320 323 330 336
188 183 184 188 189 191 194 196 202 202 199 203 207 205 203 204 207 208 208 207 203 202 203 203 205 205 203 207 213 212 214 217 222 227 232 240 242 234 235 239 241 245 248 250 254 258 262 263 262 263 263 260 260 263 266 266 264 267 271 278 281 277 275 283 290 295 303 308 311 314 317 318 317 317 320 324 326 327 331 333 337 343 343 339 336
197 183 181 185 185 189 190 189 199 204 202 209 212 204 200 208 214 208 202 207 208 207 210 205 200 204 204 209 219 218 216 217 223 232 234 238 242 243 243 242 245 248 246 250 254 256 264 264 262 269 271 267 265 262 259 263 265 259 257 263 266 264 265 274 285 297 305 308 309 309 310 311 312 315 320 326 332 338 344 347 344 342 338 333 328
172 173 175 181 185 189 187 173 179 186 183 193 200 191 181 199 213 207 200 206 203 196 207 209 206 208 206 209 221 224 218 216 218 227 234 236 237 243 249 250 253 258 258 262 268 271 277 276 276 283 284 281 287 282 266 257 256 256 255 257 260 266 271 274 280 288 292 294 296 300 304 306 308 313 317 320 326 327 328 333 334 333 333 329 324
170 177 175 178 185 192 196 178 166 162 150 155 168 164 118 120 158 173 171 177 180 187 208 212 208 211 212 211 213 210 205 209 214 220 228 235 238 240 247 253 261 271 274 275 278 280 283 286 293 299 288 275 285 288 275 259 252 256 263 269 274 281 285 285 286 289 291 292 294 297 300 300 303 306 306 308 314 316 319 327 329 328 331 329 324
184 188 181 182 187 191 197 192 179 172 157 147 153 159 134 109 119 128 128 131 130 139 166 177 179 194 204 207 207 202 204 211 216 220 225 232 235 236 242 252 263 277 285 284 285 286 285 285 288 283 260 269 285 292 291 274 257 256 268 279 283 287 290 291 293 295 294 292 292 292 292 293 295 297 299 304 309 313 317 322 323 326 331 329 322
195 192 181 185 190 190 195 196 191 189 175 157 156 165 163 139 129 127 119 118 108 106 117 121 120 132 154 169 183 197 210 220 226 229 232 231 231 231 235 244 260 283 311 323 314 306 301 297 292 266 272 296 300 298 304 297 268 255 265 275 277 279 283 286 292 296 295 293 292 290 289 289 290 292 297 304 310 313 312 313 318 323 324 320 313
204 196 179 180 183 186 193 193 191 192 187 180 178 181 182 176 165 152 130 133 140 111 107 111 113 119 132 143 157 177 195 213 230 239 240 235 232 231 229 228 238 270 316 332 330 330 327 324 318 305 301 302 299 298 298 294 284 276 278 282 283 284 284 288 299 304 300 293 289 291 295 296 294 295 297 300 304 307 307 309 314 317 316 315 312
208 197 176 169 166 172 181 179 175 176 178 181 182 181 183 182 176 169 163 168 151 119 121 125 119 124 141 146 150 164 176 185 208 228 236 234 231 228 226 227 233 255 292 295 303 322 332 332 323 312 308 301 296 298 296 292 292 293 294 299 306 310 311 318 326 322 312 303 297 301 311 312 306 306 306 299 297 301 306 310 313 315 315 316 317
202 187 167 158 153 158 164 161 157 154 154 161 168 168 170 170 163 165 172 174 146 124 126 124 116 122 140 149 150 157 162 172 192 210 221 222 218 212 209 212 217 221 242 258 276 305 325 333 325 311 307 307 308 308 303 304 307 301 303 310 313 321 336 340 341 340 344 350 335 327 334 334 326 322 318 306 302 307 309 308 311 317 320 324 329
162 152 147 143 141 147 155 156 154 146 136 136 142 146 152 156 160 168 169 161 148 140 136 121 116 119 123 126 136 145 157 188 206 222 226 218 211 203 191 170 152 166 190 217 261 301 335 342 324 319 321 325 338 341 329 325 324 318 317 315 311 318 332 332 317 298 331 338 328 326 332 327 321 329 341 336 325 322 320 318 322 328 332 339 341
127 126 130 134 133 133 138 143 141 137 133 128 125 125 128 131 135 148 151 144 136 131 125 118 120 127 132 124 117 126 133 211 280 285 263 242 233 215 190 162 146 153 159 142 69 36 58 340 315 334 335 329 331 335 334 331 327 323 323 320 318 322 319 297 284 285 300 309 314 324 329 320 313 326 345 344 334 332 342 354 356 350 345 346 339
130 125 120 127 132 130 132 132 122 121 125 126 125 124 123 122 123 125 129 130 126 121 118 117 120 131 139 128 108 99 88 63 11 343 325 267 237 210 189 173 157 148 145 138 120 103 86 46 20 356 343 341 336 333 335 335 331 328 325 321 325 325 310 304 305 308 311 317 327 335 336 333 333 337 341 341 338 341 352 5 7 355 343 337 325
134 137 131 132 135 137 139 137 132 129 125 123 124 124 123 125 127 126 127 126 121 120 124 126 126 130 129 115 101 93 90 83 72 72 98 130 152 162 173 168 147 132 132 132 121 107 84 46 21 4 358 354 343 335 337 337 334 332 329 323 326 325 322 327 336 342 350 359 2 354 345 342 346 351 354 354 354 356 359 359 357 348 335 325 321
123 129 133 134 133 135 137 134 132 130 124 119 118 118 121 125 126 124 122 120 117 117 119 120 118 114 107 101 96 89 85 82 76 76 91 107 114 125 141 137 120 110 115 119 116 110 97 57 359 350 352 356 355 351 349 348 350 356 353 345 341 340 347 358 6 11 16 19 17 14 14 13 13 18 20 14 10 8 5 1 358 354 341 325 319
124 125 127 125 122 124 128 127 126 123 120 118 116 114 115 118 120 119 118 116 113 110 108 106 104 100 95 91 87 82 80 79 75 71 72 79 91 107 117 115 107 107 113 113 112 110 90 32 2 2 8 18 25 27 20 16 20 23 20 16 7 358 354 1 12 25 28 25 25 29 30 27 25 22 13 6 6 5 3 4 6 4 359 347 338
119 118 116 113 112 113 115 117 118 116 115 114 111 108 109 111 111 112 113 114 112 107 105 105 104 103 100 95 91 90 86 81 77 73 67 68 77 91 100 103 106 111 110 98 89 79 54 26 13 12 18 20 24 38 40 33 35 41 41 30 15 5 2 14 31 39 37 29 25 22 19 14 11 7 359 357 1 1 1 7 9 6 3 359 353
113 110 109 109 109 110 111 111 109 108 109 109 108 107 109 108 105 106 110 115 116 115 114 115 114 114 111 106 102 99 95 89 84 80 77 73 74 81 90 97 105 107 99 83 68 60 51 37 25 19 18 15 15 29 40 40 43 43 36 25 21 26 45 55 48 41 34 26 18 13 12 10 6 2 358 359 1 0 1 5 4 357 349 341 334
111 109 107 106 107 109 110 111 111 111 112 114 115 115 114 111 108 106 109 114 119 123 128 133 130 122 116 114 111 105 103 99 90 83 82 81 78 76 77 83 90 89 82 69 53 41 31 25 25 26 24 23 18 15 28 47 41 30 24 28 36 50 56 48 43 38 31 24 17 13 14 12 6 1 0 2 2 359 354 350 348 349 349 347 344
110 110 110 110 110 110 112 114 114 114 115 116 116 115 114 113 111 108 110 116 120 125 138 148 144 138 137 137 130 118 107 100 90 82 81 80 76 70 63 61 58 49 44 36 22 2 346 348 2 29 35 34 25 13 22 63 35 27 31 40 43 45 43 45 49 43 33 28 23 20 18 13 5 0 0 1 358 353 350 348 351 357 360 0 4
109 109 111 116 120 119 117 118 116 112 110 112 116 119 118 117 118 115 115 122 121 116 124 136 145 160 180 176 153 134 117 106 103 102 94 76 63 53 46 44 38 25 17 13 3 345 336 343 8 40 38 26 11 3 351 7 37 41 53 54 51 53 54 53 50 41 34 32 28 22 16 8 3 2 4 2 356 354 355 357 360 1 1 2 4
116 115 114 117 124 127 126 120 112 105 104 108 116 127 129 125 131 134 127 125 119 105 99 102 103 108 125 149 154 149 139 126 114 100 80 56 45 41 39 36 30 18 11 7 1 356 356 5 27 39 29 24 29 40 57 77 67 63 62 54 53 59 57 49 41 33 31 33 29 21 15 8 6 8 8 3 358 358 360 1 360 359 0 1 360
127 126 122 116 119 127 132 125 111 103 106 109 112 119 123 121 122 121 113 111 115 110 103 97 87 86 102 124 139 141 132 116 90 67 56 49 42 36 30 26 23 17 9 2 2 9 21 27 33 46 41 35 48 61 66 64 60 58 54 49 48 48 41 33 27 23 25 28 25 17 10 5 5 6 3 0 0 2 4 3 0 358 360 360 358
134 131 132 129 127 130 133 136 138 131 122 118 115 114 114 112 111 110 103 99 102 103 102 99 91 90 104 117 124 122 113 95 65 45 40 39 35 27 20 20 20 15 7 0 359 13 36 35 38 54 61 50 52 57 54 50 50 48 45 43 40 34 29 26 23 20 22 23 18 11 5 3 3 2 359 359 3 4 3 1 359 357 358 360 360
138 138 140 140 145 145 131 129 147 150 134 127 128 121 113 108 105 102 96 88 86 86 90 94 87 79 89 101 103 96 82 64 44 30 25 24 24 22 19 20 18 12 7 6 9 23 33 31 38 60 65 56 55 53 46 44 44 40 37 34 28 26 27 26 22 22 25 20 9 2 1 1 1 359 358 359 1 2 1 1 360 358 358 358 358
149 149 142 132 143 151 132 119 127 132 126 125 132 131 127 124 117 108 98 85 73 67 67 93 92 55 33 65 78 70 54 37 21 16 15 13 12 12 14 17 12 2 360 7 19 33 30 28 43 63 63 57 58 55 48 44 38 35 37 33 27 27 26 22 21 23 19 8 360 359 4 4 359 356 357 358 358 358 359 360 359 359 1 2 2
149 143 138 128 125 131 129 120 121 126 126 127 131 134 134 135 135 131 121 105 90 84 80 88 97 86 62 44 37 33 24 10 359 357 357 353 350 351 353 357 353 343 342 354 6 20 26 31 48 59 52 49 51 45 39 35 31 30 34 33 30 27 22 19 18 12 2 358 360 5 5 359 353 354 359 2 1 0 1 3 5 8 11 11 7
142 140 141 137 126 126 130 127 127 134 139 141 148 155 157 157 157 152 144 139 136 121 105 104 109 103 92 75 57 45 29 8 355 344 337 331 326 327 328 331 334 330 331 342 347 348 358 9 25 46 47 44 41 34 33 40 40 38 35 31 27 21 16 14 7 357 354 357 2 3 359 358 2 7 10 8 6 6 9 12 14 14 12 7 1
145 145 151 150 141 139 145 144 144 147 145 143 152 165 175 180 177 170 165 169 180 189 188 182 170 151 135 116 93 82 56 22 7 349 334 323 314 311 304 301 319 327 337 352 350 335 324 340 6 67 69 51 46 57 70 70 58 47 40 34 28 19 13 9 0 352 350 352 358 1 3 6 8 9 7 5 6 10 15 15 12 8 5 1 355
148 142 148 153 150 147 150 154 161 167 161 153 153 152 150 157 166 176 187 194 200 205 205 198 187 176 173 177 171 124 79 50 39 29 13 360 350 336 322 325 340 343 346 357 353 339 323 322 349 99 73 54 74 88 83 74 63 53 44 35 27 21 16 14 11 7 5 5 6 7 11 12 12 12 14 16 19 22 20 14 8 5 2 357 352
160 153 148 150 157 160 159 158 161 166 169 170 168 155 137 147 160 178 196 210 213 209 203 196 187 183 189 201 194 122 86 69 54 46 38 32 27 17 4 356 356 356 357 0 0 357 355 358 19 58 61 73 95 92 77 69 64 50 33 22 16 13 11 11 13 16 18 19 18 20 27 30 29 30 31 28 25 21 15 9 6 3 358 354 349
175 170 159 155 160 165 166 167 168 168 172 176 178 176 169 166 166 176 191 225 213 195 190 188 185 187 198 204 184 121 96 83 61 44 37 35 34 26 15 3 352 349 1 17 26 34 47 53 58 67 71 72 70 64 57 56 54 44 34 30 25 19 13 8 7 7 11 18 23 27 32 33 30 28 27 24 19 14 10 6 2 357 352 348 344
186 182 173 170 172 170 171 178 183 186 191 194 191 184 176 174 178 191 200 343 111 165 180 192 195 200 211 204 173 138 116 97 73 48 26 21 18 13 11 10 1 354 9 38 41 37 45 53 55 57 58 54 50 48 46 44 41 36 33 32 28 22 17 15 13 11 14 22 29 27 23 22 21 20 17 15 13 10 6 2 358 352 346 342 337
186 183 181 184 187 182 178 183 187 186 189 189 183 178 181 187 194 202 215 242 247 205 204 202 198 205 215 199 167 147 140 123 97 66 15 3 352 340 2 24 33 46 66 70 59 46 44 45 42 38 36 34 34 34 31 29 26 22 17 13 10 11 14 17 21 25 29 32 31 25 19 15 13 10 7 5 5 1 357 355 353 349 343 338 334
185 183 187 194 197 190 184 186 189 185 179 178 181 189 198 200 203 206 208 219 241 241 221 187 165 165 174 173 162 155 155 147 120 2 349 352 350 357 26 40 55 71 74 68 61 53 47 41 39 39 35 31 30 30 29 27 29 29 27 25 22 22 25 27 30 34 35 31 26 24 21 16 10 7 5 3 358 353 350 348 345 342 338 333 330
199 195 196 200 201 194 188 188 191 192 191 193 197 199 195 191 195 204 209 217 265 229 172 157 148 144 149 155 159 164 168 119 353 350 1 20 35 51 52 47 44 48 55 56 55 52 49 44 37 31 27 27 29 32 29 25 26 31 33 32 32 33 33 29 23 20 17 14 11 10 10 7 5 3 0 356 350 347 344 341 338 336 334 331 328
208 209 207 207 207 204 200 196 193 194 197 200 197 192 186 185 194 205 213 220 221 132 132 143 148 149 151 152 153 147 337 339 349 18 62 70 63 64 61 50 40 37 38 38 37 39 42 40 31 23 19 19 20 23 27 28 28 30 30 29 32 34 31 22 11 2 358 358 357 355 353 353 354 354 352 348 345 343 340 338 335 333 331 328 327
212 216 215 213 211 209 206 201 197 201 205 205 199 193 191 190 187 185 186 193 200 188 154 152 157 158 157 157 129 356 354 1 84 102 96 79 73 73 59 43 44 52 52 45 41 38 35 32 28 24 21 18 14 16 20 21 20 21 22 23 25 24 17 10 5 0 357 356 354 352 352 352 351 349 347 345 342 340 337 333 330 327 324 323 322
217 219 220 218 215 212 206 200 201 207 211 210 207 204 203 201 194 184 177 178 192 199 184 165 163 168 166 141 101 98 115 128 128 124 115 71 60 59 34 15 20 34 41 41 43 41 31 22 17 15 14 12 8 6 6 3 1 3 9 13 12 8 4 5 6 5 359 355 352 351 351 350 347 345 344 342 338 335 332 328 325 323 322 321 320
217 217 216 217 219 218 210 206 210 214 210 205 203 199 194 192 192 189 190 198 204 195 184 164 147 151 152 130 104 107 123 124 112 102 98 71 49 34 17 10 7 3 1 6 15 24 27 24 13 2 0 1 359 357 357 353 349 351 358 3 3 1 359 360 1 357 351 350 351 352 351 349 346 344 341 338 333 331 328 326 324 322 321 320 319
213 212 210 208 210 213 212 213 219 219 208 200 200 200 197 200 203 202 203 210 201 174 162 152 133 126 126 114 101 115 125 119 114 108 101 95 85 62 30 16 11 10 7 359 348 346 5 17 12 2 356 357 357 358 358 353 347 348 355 358 355 352 349 348 348 346 345 347 350 351 349 346 344 342 339 334 330 328 325 323 322 321 319 317 315
216 214 209 201 199 205 214 219 220 218 210 204 202 204 207 214 217 210 202 197 185 164 155 152 141 125 111 101 114 130 133 127 118 109 101 92 75 49 29 16 7 0 360 359 351 337 331 343 355 355 349 345 346 350 350 344 338 339 344 344 340 337 338 339 339 340 342 345 348 347 344 342 342 341 339 334 329 325 323 321 319 318 315 312 311
224 224 222 219 220 224 224 221 216 213 209 206 203 205 212 217 212 202 192 185 181 177 171 165 160 163 162 146 128 127 131 129 107 56 340 317 326 339 351 357 356 350 346 350 353 346 336 334 339 342 340 336 334 337 339 336 330 328 330 332 330 331 334 335 336 339 342 344 343 341 340 341 342 340 337 333 328 323 321 318 315 313 312 311 310
221 222 223 224 228 228 221 214 209 207 205 205 206 209 210 201 185 180 178 174 171 174 172 162 159 167 174 171 166 158 157 193 246 273 286 293 298 303 314 329 338 338 337 336 336 336 338 338 335 334 334 331 328 330 334 335 332 328 326 327 329 333 336 337 338 340 341 339 338 338 339 340 340 338 335 330 324 318 315 313 310 310 310 309 308
216 215 217 220 222 220 212 204 199 195 194 198 205 208 202 186 164 159 161 156 150 152 159 163 168 175 179 181 182 183 175 179 232 289 291 288 293 304 315 318 318 321 325 328 328 330 337 337 330 327 329 328 324 321 323 328 330 327 325 327 332 335 337 337 337 337 337 336 336 337 338 337 336 334 331 325 319 314 312 311 310 310 310 308 308
216 215 216 215 210 202 193 189 187 186 190 198 207 208 200 190 179 167 161 156 151 153 162 169 171 174 174 174 173 171 168 165 149 83 30 344 333 334 332 332 334 334 332 332 331 333 336 333 329 328 329 328 325 319 316 319 323 323 323 327 329 330 331 333 335 335 334 333 334 335 335 334 332 329 324 319 315 311 310 310 309 307 307 307 307